Weather observations for the past three days for
COLUMBIA
Imperial (Metric)
Date Time (pdt) Wind (mph) Vis. (mi.) Weather Sky Cond. Temperature (ºF) Relative Humidity Wind Chill (°F) Heat Index (°F) Pressure Precipitation (in)
Air Dwpt 6 hour altimeter (in) sea level (mb) 1 hr 3 hr 6 hr
Max. Min.
22 10:15 S 5 10.00 Fair CLR 93.2 53.6 26% 91 29.92 0.0
22 09:55 S 3 10.00 Fair CLR 91.4 53.6 28% 89 29.92 0.0
22 09:35 Calm 10.00 Fair CLR 91.4 53.6 28% 89 29.92 0.0
22 09:15 Calm 10.00 Fair CLR 89.6 55.4 31% 88 29.92 0.0
22 08:55 Calm 10.00 Fair CLR 87.8 55.4 33% 86 29.92 0.0
22 08:35 Calm 10.00 Fair CLR 86 55.4 35% 85 29.92 0.0
22 08:15 Calm 10.00 Fair CLR 84.2 60.8 45% 84 29.92 0.0
22 07:55 Calm 10.00 Fair CLR 80.6 59 48% 81 29.91 0.0
22 07:35 Calm 10.00 Fair CLR 77 57.2 51% 79 29.91 0.0
22 07:15 Calm 10.00 Fair CLR 73.4 57.2 57% 29.9 0.0
22 06:55 Calm 10.00 Fair CLR 71.6 55.4 57% 29.9 0.0
22 06:35 Calm 10.00 Fair CLR 69.8 55.4 60% 29.9 0.0
22 06:15 Calm 10.00 Fair CLR 69.8 53.6 57% 29.9 0.0
22 05:55 Calm 10.00 Fair CLR 69.8 53.6 57% 29.89 0.0
22 05:35 Calm 10.00 Fair CLR 69.8 53.6 57% 29.89 0.0
22 05:15 Calm 10.00 Fair CLR 69.8 53.6 57% 29.89 0.0
22 04:55 Calm 10.00 Fair CLR 69.8 53.6 57% 29.88 0.0
22 04:35 Calm 10.00 Fair CLR 69.8 53.6 57% 29.88 0.0
22 04:15 Calm 10.00 Fair CLR 69.8 53.6 57% 29.88 0.0
22 03:55 Calm 10.00 Fair CLR 71.6 53.6 53% 29.88 0.0
22 03:35 Calm 10.00 Fair CLR 71.6 53.6 53% 29.89 0.0
22 03:15 Calm 10.00 Fair CLR 71.6 53.6 53% 29.88 0.0
22 02:55 Calm 10.00 Fair CLR 71.6 53.6 53% 29.88 0.0
22 02:35 Calm 10.00 Fair CLR 71.6 53.6 53% 29.89 0.0
22 02:15 Calm 10.00 Fair CLR 71.6 53.6 53% 29.89 0.0
22 01:55 Calm 10.00 Fair CLR 71.6 51.8 50% 29.89 0.0
22 01:35 Calm 10.00 Fair CLR 73.4 51.8 47% 29.89 0.0
22 01:15 Calm 10.00 Fair CLR 71.6 51.8 50% 29.89 0.0
22 00:55 Calm 10.00 Fair CLR 73.4 51.8 47% 29.9 0.0
22 00:35 Calm 10.00 Fair CLR 73.4 51.8 47% 29.89 0.0
22 00:15 Calm 10.00 Fair CLR 73.4 51.8 47% 29.9 0.0
21 23:55 Calm 10.00 Fair CLR 73.4 53.6 50% 29.9 0.0
21 23:35 Calm 10.00 Fair CLR 75.2 53.6 47% 78 29.9 0.0
21 23:15 Calm 10.00 Fair CLR 75.2 53.6 47% 78 29.9 0.0
21 22:55 Calm 10.00 Fair CLR 77 53.6 44% 78 29.91 0.0
21 22:35 Calm 10.00 Fair CLR 77 51.8 42% 78 29.91 0.0
21 22:15 Calm 10.00 Fair CLR 78.8 53.6 42% 79 29.91 0.0
21 21:55 Calm 10.00 Fair CLR 78.8 53.6 42% 79 29.91 0.0
21 21:35 Calm 10.00 Fair CLR 80.6 53.6 39% 80 29.91 0.0
21 21:15 Calm 10.00 Fair CLR 80.6 53.6 39% 80 29.91 0.0
21 20:55 Calm 10.00 Fair CLR 82.4 55.4 40% 82 29.9 0.0
21 20:35 Calm 10.00 Fair CLR 84.2 53.6 35% 83 29.91 0.0
21 20:15 Calm 10.00 Fair CLR 87.8 48.2 25% 85 29.9 0.0
21 19:35 Calm 10.00 Fair CLR 93.2 48.2 21% 90 29.9 0.0
21 19:15 Calm 10.00 Fair CLR 93.2 48.2 21% 90 29.9 0.0
21 18:55 SW 5 10.00 Fair CLR 95 46.4 19% 91 29.9 0.0
21 18:35 S 5 10.00 Fair CLR 95 44.6 18% 91 29.9 0.0
21 18:15 S 5 10.00 Fair CLR 96.8 44.6 17% 93 29.9 0.0
21 17:55 SW 5 10.00 Fair CLR 96.8 44.6 17% 93 29.91 0.0
21 17:35 SW 6 10.00 Fair CLR 96.8 44.6 17% 93 29.91 0.0
21 17:15 Vrbl 5 10.00 Fair CLR 96.8 44.6 17% 93 29.91 0.0
21 16:55 SW 6 10.00 Fair CLR 96.8 44.6 17% 93 29.91 0.0
21 16:35 SW 5 10.00 Fair CLR 96.8 44.6 17% 93 29.92 0.0
21 16:15 Vrbl 5 10.00 Fair CLR 96.8 44.6 17% 93 29.92 0.0
21 15:55 SW 6 10.00 Fair CLR 96.8 46.4 18% 93 29.92 0.0
21 15:35 S 5 10.00 Fair CLR 96.8 46.4 18% 93 29.93 0.0
21 14:35 S 6 10.00 Fair CLR 96.8 46.4 18% 93 29.94 0.0
21 13:55 Vrbl 6 10.00 Fair CLR 96.8 46.4 18% 93 29.95 0.0
21 13:35 S 6 10.00 Fair CLR 95 46.4 19% 91 29.95 0.0
21 13:15 S 6 10.00 Fair CLR 93.2 48.2 21% 90 29.95 0.0
21 12:35 S 6 10.00 Fair CLR 93.2 50 23% 90 29.95 0.0
21 12:15 S 7 10.00 Fair CLR 93.2 50 23% 90 29.95 0.0
21 11:55 S 7 10.00 Fair CLR 91.4 51.8 26% 89 29.95 0.0
21 11:35 S 5 10.00 Fair CLR 91.4 53.6 28% 89 29.95 0.0
21 11:15 Vrbl 5 10.00 Fair CLR 91.4 55.4 30% 90 29.96 0.0
21 10:55 S 5 10.00 Fair CLR 89.6 53.6 29% 87 29.96 0.0
21 10:35 S 3 10.00 Fair CLR 89.6 55.4 31% 88 29.96 0.0
21 10:15 S 3 10.00 Fair CLR 89.6 55.4 31% 88 29.96 0.0
21 09:55 S 5 10.00 Fair CLR 87.8 57.2 35% 87 29.96 0.0
21 09:35 Calm 10.00 Fair CLR 86 55.4 35% 85 29.96 0.0
21 09:15 Calm 10.00 Fair CLR 86 55.4 35% 85 29.95 0.0
21 08:55 Calm 10.00 Fair CLR 84.2 55.4 37% 83 29.95 0.0
21 08:35 Calm 10.00 Fair CLR 84.2 55.4 37% 83 29.95 0.0
21 08:15 Calm 10.00 Fair CLR 80.6 59 48% 81 29.95 0.0
21 07:55 Calm 10.00 Fair CLR 78.8 59 51% 80 29.95 0.0
21 07:35 Calm 10.00 Fair CLR 75.2 59 57% 78 29.94 0.0
21 07:15 Calm 10.00 Fair CLR 71.6 57.2 61% 29.94 0.0
21 06:55 Calm 10.00 Fair CLR 69.8 57.2 64% 29.94 0.0
21 06:35 Calm 10.00 Fair CLR 68 55.4 64% 29.94 0.0
21 06:15 Calm 10.00 Fair CLR 68 55.4 64% 29.93 0.0
21 05:55 Calm 10.00 Fair CLR 68 55.4 64% 29.93 0.0
21 05:35 Calm 10.00 Fair CLR 69.8 55.4 60% 29.93 0.0
21 05:15 Calm 10.00 A Few Clouds FEW046 69.8 55.4 60% 29.93 0.0
21 04:55 Calm 10.00 A Few Clouds FEW047 69.8 55.4 60% 29.93 0.0
21 04:35 Calm 10.00 A Few Clouds FEW045 69.8 55.4 60% 29.93 0.0
21 04:15 Calm 10.00 Fair CLR 69.8 53.6 57% 29.93 0.0
21 03:55 Calm 10.00 Fair CLR 69.8 53.6 57% 29.93 0.0
21 03:35 Calm 10.00 A Few Clouds FEW120 69.8 53.6 57% 29.92 0.0
21 03:15 Calm 10.00 Partly Cloudy SCT120 71.6 53.6 53% 29.93 0.0
21 02:55 Calm 10.00 Mostly Cloudy BKN120 71.6 53.6 53% 29.93 0.0
21 02:35 Calm 10.00 Mostly Cloudy BKN120 73.4 53.6 50% 29.94 0.0
21 02:15 Calm 10.00 Partly Cloudy SCT120 73.4 53.6 50% 29.94 0.0
21 01:55 Calm 10.00 Fair CLR 73.4 53.6 50% 29.94 0.0
21 01:35 Calm 10.00 Fair CLR 73.4 51.8 47% 29.94 0.0
21 01:15 Calm 10.00 Fair CLR 75.2 51.8 44% 78 29.95 0.0
21 00:55 Calm 10.00 Fair CLR 75.2 51.8 44% 78 29.95 0.0
21 00:35 Calm 10.00 Fair CLR 75.2 51.8 44% 78 29.95 0.0
21 00:15 Calm 10.00 Fair CLR 75.2 51.8 44% 78 29.96 0.0
20 23:55 Calm 10.00 Fair CLR 75.2 51.8 44% 78 29.96 0.0
20 23:35 Calm 10.00 Fair CLR 77 51.8 42% 78 29.96 0.0
20 23:15 Calm 10.00 Fair CLR 77 53.6 44% 78 29.96 0.0
20 22:55 Calm 10.00 Fair CLR 78.8 53.6 42% 79 29.97 0.0
20 22:35 Calm 10.00 Fair CLR 78.8 53.6 42% 79 29.97 0.0
20 22:15 Calm 10.00 Fair CLR 80.6 53.6 39% 80 29.97 0.0
20 21:55 Calm 10.00 Fair CLR 80.6 53.6 39% 80 29.97 0.0
20 21:35 Calm 10.00 Fair CLR 84.2 46.4 27% 82 29.96 0.0
20 20:55 W 7 10.00 Fair CLR 87.8 48.2 25% 85 29.95 0.0
20 20:35 Vrbl 6 10.00 Fair CLR 87.8 48.2 25% 85 29.95 0.0
20 20:15 W 6 10.00 Fair CLR 89.6 50 26% 87 29.95 0.0
20 19:55 W 3 10.00 Fair CLR 91.4 51.8 26% 89 29.94 0.0
20 19:35 SW 5 10.00 Fair CLR 93.2 51.8 24% 90 29.93 0.0
20 19:15 SW 3 10.00 Fair CLR 95 51.8 23% 92 29.93 0.0
20 18:55 Vrbl 5 10.00 Fair CLR 96.8 50 20% 94 29.93 0.0
20 18:35 SW 5 10.00 Fair CLR 98.6 50 19% 95 29.93 0.0
20 18:15 W 6 10.00 Fair CLR 98.6 50 19% 95 29.93 0.0
20 17:55 SW 5 10.00 Fair CLR 98.6 50 19% 95 29.93 0.0
20 17:35 SW 8 10.00 Fair CLR 98.6 50 19% 95 29.93 0.0
20 17:15 SW 6 10.00 Fair CLR 98.6 50 19% 95 29.93 0.0
20 16:55 SW 6 10.00 Fair CLR 98.6 50 19% 95 29.93 0.0
20 16:35 SW 5 G 12 10.00 Fair CLR 100.4 50 18% 97 29.94 0.0
20 16:15 SW 7 10.00 Fair CLR 100.4 48.2 17% 97 29.94 0.0
20 15:55 SW 7 10.00 Fair CLR 100.4 48.2 17% 97 29.94 0.0
20 15:35 SW 7 10.00 Fair CLR 100.4 48.2 17% 97 29.94 0.0
20 15:15 SW 8 10.00 Fair CLR 100.4 48.2 17% 97 29.95 0.0
20 14:55 SW 10 10.00 Fair CLR 100.4 48.2 17% 97 29.95 0.0
20 14:35 SW 6 10.00 Fair CLR 100.4 48.2 17% 97 29.95 0.0
20 14:15 S 5 G 12 10.00 Fair CLR 100.4 48.2 17% 97 29.96 0.0
20 13:55 Calm 10.00 Fair CLR 98.6 50 19% 95 29.96 0.0
20 13:35 SW 5 10.00 Fair CLR 100.4 50 18% 97 29.97 0.0
20 13:15 Vrbl 6 10.00 Fair CLR 98.6 50 19% 95 29.97 0.0
20 12:55 Vrbl 5 10.00 Fair CLR 96.8 50 20% 94 29.97 0.0
20 12:35 Calm 10.00 Fair CLR 96.8 50 20% 94 29.98 0.0
20 12:15 Calm 10.00 Fair CLR 96.8 50 20% 94 29.98 0.0
20 11:55 Calm 10.00 Fair CLR 95 50 22% 92 29.99 0.0
20 11:35 S 5 10.00 Fair CLR 95 50 22% 92 29.99 0.0
20 11:15 S 6 10.00 Fair CLR 93.2 51.8 24% 90 29.99 0.0
20 10:55 Calm 10.00 Fair CLR 93.2 51.8 24% 90 29.99 0.0
20 10:35 S 5 10.00 Fair CLR 93.2 51.8 24% 90 29.99 0.0
20 10:15 S 5 10.00 Fair CLR 91.4 53.6 28% 89 30 0.0
20 09:55 Calm 10.00 Fair CLR 91.4 51.8 26% 89 30 0.0
20 09:35 Calm 10.00 Fair CLR 91.4 51.8 26% 89 30 0.0
20 09:15 Calm 10.00 Fair CLR 89.6 50 26% 87 30 0.0
20 08:55 Calm 10.00 Fair CLR 89.6 53.6 29% 87 29.99 0.0
20 08:35 Calm 10.00 Fair CLR 86 57.2 38% 85 29.99 0.0
20 08:15 Calm 10.00 Fair CLR 82.4 59 45% 82 29.99 0.0
20 07:55 Calm 10.00 Fair CLR 78.8 57.2 48% 80 29.98 0.0
20 07:35 Calm 10.00 Fair CLR 75.2 55.4 50% 78 29.98 0.0
20 07:15 Calm 10.00 Fair CLR 73.4 55.4 53% 29.97 0.0
20 06:55 Calm 10.00 Fair CLR 71.6 53.6 53% 29.96 0.0
20 06:35 Calm 10.00 Fair CLR 69.8 51.8 53% 29.96 0.0
20 06:15 Calm 10.00 Fair CLR 69.8 51.8 53% 29.96 0.0
20 05:55 Calm 10.00 Fair CLR 69.8 50 50% 29.96 0.0
20 05:35 Calm 10.00 Fair CLR 69.8 50 50% 29.95 0.0
20 05:15 Calm 10.00 Fair CLR 69.8 50 50% 29.95 0.0
20 04:55 Calm 10.00 Fair CLR 71.6 50 47% 29.95 0.0
20 04:35 Calm 10.00 Fair CLR 71.6 50 47% 29.95 0.0
20 04:15 Calm 10.00 Fair CLR 69.8 50 50% 29.95 0.0
20 03:55 Calm 10.00 Fair CLR 69.8 50 50% 29.96 0.0
20 03:35 Calm 10.00 Fair CLR 69.8 50 50% 29.96 0.0
20 03:15 Calm 10.00 Fair CLR 69.8 50 50% 29.96 0.0
20 02:55 Calm 10.00 Fair CLR 71.6 50 47% 29.96 0.0
20 02:35 Calm 10.00 Fair CLR 71.6 50 47% 29.96 0.0
20 02:15 Calm 10.00 Fair CLR 71.6 50 47% 29.96 0.0
20 01:55 NE 3 10.00 Fair CLR 71.6 50 47% 29.97 0.0
20 01:35 Calm 10.00 Fair CLR 73.4 50 44% 29.97 0.0
20 01:15 Calm 10.00 Fair CLR 73.4 50 44% 29.97 0.0
20 00:55 Calm 10.00 Fair CLR 75.2 50 41% 78 29.97 0.0
20 00:35 Calm 10.00 Fair CLR 75.2 50 41% 78 29.97 0.0
20 00:15 Calm 10.00 Fair CLR 75.2 50 41% 78 29.98 0.0
19 23:55 Calm 10.00 Fair CLR 75.2 50 41% 78 29.99 0.0
19 23:35 Calm 10.00 Fair CLR 75.2 50 41% 78 29.99 0.0
19 23:15 Calm 10.00 Fair CLR 77 50 39% 78 29.99 0.0
19 22:55 NE 5 10.00 Fair CLR 78.8 50 37% 79 29.99 0.0
19 22:35 Vrbl 3 10.00 Fair CLR 80.6 50 34% 80 29.99 0.0
19 22:15 W 5 10.00 Fair CLR 84.2 48.2 29% 82 30 0.0
19 21:55 Calm 10.00 Fair CLR 84.2 48.2 29% 82 30 0.0
19 21:35 Calm 10.00 Fair CLR 86 48.2 27% 83 29.99 0.0
19 21:15 Vrbl 7 10.00 Fair CLR 87.8 46.4 24% 85 29.99 0.0
19 20:55 Calm 10.00 Fair CLR 87.8 44.6 22% 85 29.99 0.0
19 20:35 Vrbl 3 10.00 Fair CLR 89.6 42.8 20% 86 29.99 0.0
19 20:15 Vrbl 3 10.00 Fair CLR 89.6 42.8 20% 86 29.99 0.0
19 19:55 Vrbl 3 10.00 Fair CLR 91.4 41 17% 87 29.98 0.0
19 19:35 W 5 10.00 Fair CLR 93.2 41 16% 89 29.98 0.0
19 19:15 W 6 10.00 Fair CLR 95 41 15% 91 29.97 0.0
19 18:55 W 7 10.00 Fair CLR 96.8 41 14% 92 29.97 0.0
19 18:35 W 7 10.00 Fair CLR 96.8 41 14% 92 29.97 0.0
19 18:15 W 8 10.00 Fair CLR 98.6 41 14% 94 29.96 0.0
19 17:55 W 7 G 13 10.00 Fair CLR 98.6 41 14% 94 29.97 0.0
19 17:35 W 7 10.00 Fair CLR 98.6 41 14% 94 29.97 0.0
19 17:15 W 7 10.00 Fair CLR 100.4 41 13% 96 29.97 0.0
19 16:55 W 7 G 13 10.00 Fair CLR 100.4 42.8 14% 96 29.98 0.0
19 16:35 Vrbl 5 10.00 Fair CLR 100.4 42.8 14% 96 29.98 0.0
19 16:15 W 8 10.00 Fair CLR 100.4 42.8 14% 96 29.99 0.0
19 15:55 W 8 10.00 Fair CLR 100.4 41 13% 96 29.99 0.0
19 15:35 Vrbl 6 10.00 Fair CLR 100.4 41 13% 96 30 0.0
19 15:15 Vrbl 6 10.00 Fair CLR 98.6 41 14% 94 30 0.0
19 14:55 Vrbl 7 10.00 Fair CLR 100.4 41 13% 96 30.01 0.0
19 14:35 S 8 10.00 Fair CLR 100.4 41 13% 96 30.01 0.0
19 14:15 Vrbl 6 G 14 10.00 Fair CLR 98.6 42.8 15% 94 30.02 0.0
19 13:55 S 7 G 13 10.00 Fair CLR 98.6 41 14% 94 30.02 0.0
19 13:35 Vrbl 3 G 13 10.00 Fair CLR 96.8 41 14% 92 30.03 0.0
19 13:15 Vrbl 5 10.00 Fair CLR 96.8 41 14% 92 30.03 0.0
19 12:55 S 7 10.00 Fair CLR 96.8 42.8 16% 93 30.03 0.0
19 12:35 S 6 10.00 Fair CLR 95 44.6 18% 91 30.04 0.0
19 12:15 SW 6 10.00 Fair CLR 95 46.4 19% 91 30.04 0.0
19 11:55 SW 6 9.00 Fair CLR 93.2 46.4 20% 90 30.04 0.0
19 11:35 Vrbl 3 10.00 Fair CLR 95 48.2 20% 92 30.04 0.0
19 11:15 Calm 10.00 Fair CLR 93.2 48.2 21% 90 30.04 0.0
19 10:55 Calm 10.00 Fair CLR 91.4 48.2 23% 88 30.04 0.0
19 10:35 Calm 10.00 Fair CLR 91.4 50 24% 88 30.04 0.0
Date Time (pdt) Wind (mph) Vis. (mi.) Weather Sky Cond. Air Dwpt Max. Min. Relative Humidity Wind Chill (°F) Heat Index (°F) altimeter (in) sea level (mb) 1 hr 3 hr 6 hr
6 hour
Temperature (ºF) Pressure Precipitation (in)